Wind_Speed
7 5 9 14 13 14 15 19 24 24 23 14 15 16 17 15 14 16 20 19 17 20 21 22 21 19 19 17 17 17 16 16 20 18 16 19 16 26 25 28 34 34 29 26
2 5 9 9 10 14 22 24 23 24 16 8 14 19 17 2 4 14 18 18 18 19 18 17 18 18 17 15 16 16 17 19 22 17 16 18 25 21 24 31 32 31 26 19
3 6 10 10 15 19 21 23 17 20 23 25 19 20 4 5 10 22 22 21 20 20 18 17 15 15 16 15 14 15 17 17 20 14 13 21 26 27 23 29 32 32 27 24
3 9 12 14 16 22 20 17 25 25 13 5 3 1 13 13 19 21 28 30 29 25 19 17 17 13 15 14 13 16 13 14 16 19 15 24 25 22 25 24 27 33 30 29
7 11 16 13 20 24 16 27 23 21 14 9 14 5 9 16 26 29 30 39 35 29 20 18 16 13 13 12 14 13 15 14 16 16 12 24 26 22 22 21 32 39 33 32
7 10 6 11 22 19 26 21 13 6 5 3 11 4 12 14 21 27 33 45 48 17 7 11 13 13 14 12 12 9 11 12 16 18 16 17 17 18 17 24 30 33 32 36
13 0 10 18 21 10 20 19 4 2 4 5 10 7 8 21 21 22 26 41 37 23 10 6 6 6 5 5 4 9 13 23 22 23 16 15 15 7 18 26 21 26 32 28
8 4 12 11 10 17 15 11 5 6 5 5 9 7 4 22 26 31 29 33 41 39 33 25 16 9 8 7 11 15 23 25 21 24 21 14 17 14 12 6 18 23 25 20
7 4 7 6 10 20 11 10 10 5 7 3 3 7 7 28 25 33 40 45 43 38 33 28 22 18 16 18 21 27 34 37 31 29 26 25 25 20 16 22 18 18 25 20
4 7 4 6 8 20 8 10 4 4 7 5 5 5 9 25 24 26 29 37 40 39 37 31 29 21 24 26 27 36 41 38 38 38 36 35 34 34 29 31 30 31 33 31
3 2 11 4 12 20 13 7 5 2 5 5 6 3 7 16 18 19 23 33 35 36 35 33 27 28 28 29 36 46 47 41 44 46 46 48 47 43 37 35 36 35 34 32
4 4 6 2 5 10 20 12 5 4 5 3 4 4 11 16 17 21 25 30 33 35 35 33 29 29 30 29 42 52 49 46 44 46 47 50 51 48 43 42 39 37 38 38
7 5 7 0 4 11 9 19 8 1 3 7 5 3 13 18 20 24 25 30 31 35 37 34 34 28 31 41 48 49 49 46 43 44 45 47 48 50 49 47 43 41 41 41
3 3 4 6 1 4 12 16 15 2 2 3 3 13 16 16 16 22 26 28 28 32 35 34 33 31 34 46 52 49 50 46 46 47 48 50 51 48 48 47 44 43 43 42
3 2 2 3 4 2 10 13 12 10 6 3 8 7 13 13 14 18 19 27 31 34 34 32 27 30 41 50 47 48 49 49 49 50 51 51 50 47 45 44 43 40 40 40
3 1 2 3 5 7 9 13 11 7 7 4 6 4 10 10 12 23 26 27 27 27 26 28 30 38 43 41 42 47 49 49 48 49 49 47 46 44 43 41 40 38 39 36
4 2 2 6 3 4 1 7 7 5 6 2 5 6 10 8 15 18 23 22 21 22 22 26 30 36 36 40 43 47 48 46 47 47 45 44 42 42 40 37 35 35 35 32
3 1 1 3 5 6 2 6 8 5 4 4 1 4 4 8 14 16 16 15 15 18 24 31 33 34 37 40 42 43 43 44 44 44 42 40 38 38 35 34 35 34 31 30
5 2 0 1 3 3 2 6 4 3 4 2 2 5 5 5 4 15 14 14 17 21 25 27 32 35 36 38 40 40 41 41 40 40 39 37 35 34 33 34 32 30 27 27
4 3 2 1 2 2 2 5 6 2 3 6 4 1 1 2 4 3 10 14 18 20 24 29 31 33 36 36 35 38 39 38 38 35 34 32 31 30 30 28 26 25 24 24
3 3 2 2 2 1 3 7 7 3 4 13 8 5 5 4 6 6 10 15 19 23 25 27 29 32 32 32 31 34 34 35 33 31 29 28 27 27 26 24 23 22 21 20
3 4 3 1 2 3 9 8 4 3 13 18 12 11 17 18 15 13 14 16 19 21 22 25 27 28 28 27 27 30 31 29 27 26 25 25 25 24 21 20 19 19 18 18
2 2 1 3 1 2 16 4 5 16 21 17 18 19 19 19 17 16 16 17 19 20 22 23 25 26 26 25 24 26 27 24 23 22 22 21 20 18 17 16 16 16 15 16
4 4 2 2 4 5 12 14 19 18 19 20 19 21 19 18 17 18 18 19 21 21 22 22 22 23 24 22 22 23 23 21 20 20 20 19 17 16 16 16 14 13 12 12
1 10 5 3 2 2 9 20 26 24 22 21 20 19 18 20 20 20 22 22 22 22 22 21 21 21 21 21 20 21 20 17 16 16 17 16 15 15 14 12 10 11 14 15
14 8 7 6 22 10 21 34 31 31 29 26 25 24 22 21 22 23 23 23 23 22 21 21 20 19 20 19 19 18 16 14 13 14 14 13 12 11 9 8 8 9 10 11
Wind_Direction
356 297 11 345 322 313 302 290 286 287 294 289 273 277 290 327 12 4 353 334 306 283 272 261 267 272 268 266 267 273 276 262 228 226 262 259 247 225 226 213 200 203 202 203
6 43 340 329 306 311 316 305 295 293 320 313 291 288 297 95 43 24 359 346 332 317 314 272 267 269 266 263 261 265 276 265 230 215 261 265 235 235 235 238 238 207 210 211
8 340 324 306 314 325 323 305 316 317 317 304 285 278 207 4 27 359 348 338 329 315 301 289 281 272 264 258 255 266 270 257 227 225 255 244 231 228 229 204 206 236 218 223
339 336 335 316 315 332 315 334 311 301 299 271 4 49 40 12 358 351 348 341 328 313 295 278 271 265 258 253 254 262 250 235 223 215 249 242 219 212 218 221 223 238 231 219
4 339 344 330 330 331 307 320 306 288 264 265 256 231 19 16 358 350 346 339 328 309 280 270 266 259 250 248 252 256 223 240 213 213 215 217 212 211 233 239 232 229 215 221
300 302 317 327 331 330 337 322 297 279 185 167 28 252 38 15 354 344 340 337 331 346 283 272 268 256 241 235 236 238 236 223 190 185 183 192 209 210 219 233 227 229 232 223
327 3 345 5 337 340 346 349 345 65 42 34 359 67 66 12 358 350 337 330 342 13 12 328 294 251 237 257 272 198 200 136 136 167 151 108 95 167 204 204 202 204 196 210
347 333 8 4 17 343 346 1 15 344 3 343 31 10 88 12 355 349 341 345 6 8 19 25 30 52 112 142 155 164 134 139 148 140 138 132 114 88 108 116 192 168 174 180
335 294 0 43 358 12 334 5 312 289 221 264 28 8 148 349 351 350 355 359 359 3 14 29 46 74 104 120 127 129 120 115 111 115 116 112 109 109 117 127 136 126 116 133
343 295 5 24 331 21 11 1 16 334 352 21 68 56 340 346 343 345 351 350 352 0 14 29 43 77 96 103 123 114 112 113 111 112 110 105 102 102 100 108 110 108 107 108
289 236 319 344 26 28 14 21 354 261 14 336 329 47 5 349 346 344 342 347 353 360 11 27 45 71 90 98 100 106 111 117 110 110 114 113 110 106 109 107 108 106 106 101
28 287 295 38 156 76 37 14 358 342 5 18 272 63 31 6 354 353 348 353 358 7 17 32 50 69 83 79 98 105 108 115 111 112 111 107 107 109 110 110 108 107 104 103
339 353 322 94 172 18 27 11 5 64 278 27 333 43 30 5 360 1 360 357 3 12 22 37 59 62 71 81 97 102 105 108 108 108 106 105 103 103 103 103 102 100 98 96
294 10 38 64 51 348 5 6 14 4 42 319 23 310 0 360 353 356 0 5 9 24 30 37 48 57 75 87 97 100 104 107 107 106 104 101 99 100 100 102 102 100 99 97
360 339 282 232 252 29 38 13 15 49 24 28 319 345 5 353 355 352 6 18 18 21 35 46 45 56 79 90 93 98 102 102 104 102 100 98 100 100 101 100 96 97 94 91
358 352 290 248 216 233 27 29 357 20 34 20 312 356 33 21 11 8 11 23 21 26 48 43 60 69 83 88 90 98 100 100 100 98 97 100 101 101 99 95 97 96 92 91
334 327 305 324 345 190 196 22 31 328 33 342 18 333 12 23 29 21 14 29 26 38 60 61 66 78 78 89 98 98 100 101 99 98 99 98 98 96 96 97 95 90 89 88
312 291 286 318 315 21 27 123 131 103 16 36 268 320 359 72 58 43 39 44 52 61 77 83 85 89 93 97 98 100 101 100 100 100 99 99 98 97 98 95 90 90 89 83
212 268 278 9 23 333 227 151 193 210 28 10 341 345 308 242 192 46 45 55 66 80 87 89 95 97 98 99 102 103 101 100 98 97 97 97 96 96 96 91 89 87 85 83
187 233 281 172 222 272 87 129 155 78 76 160 151 168 3 294 89 61 56 78 90 94 100 102 104 104 105 105 105 103 100 98 95 96 96 97 98 96 91 91 91 87 82 80
204 195 241 174 244 204 96 140 155 282 128 149 162 159 163 122 116 132 101 101 103 104 104 106 108 105 103 105 106 103 103 99 100 102 102 101 99 96 96 96 91 87 81 75
239 182 177 126 225 270 152 128 203 147 122 142 141 131 124 127 131 126 117 111 111 112 113 112 110 107 108 109 108 103 100 102 105 105 103 100 97 95 92 89 87 82 75 66
262 279 315 229 358 116 185 174 196 156 153 158 154 150 145 141 139 135 132 129 126 124 122 119 117 116 114 111 107 107 105 108 108 107 103 97 94 94 94 92 86 79 70 59
214 188 248 303 167 205 210 211 171 164 164 162 164 158 156 155 155 150 146 142 139 136 133 130 127 124 120 118 116 112 114 116 119 114 109 106 105 100 90 82 77 68 64 53
93 156 191 248 160 171 209 185 171 166 168 165 168 169 166 164 161 159 157 154 152 150 148 144 141 137 130 126 123 119 118 115 109 103 99 97 91 83 77 75 72 60 45 36
190 180 185 213 183 174 193 180 178 175 177 179 178 177 179 176 172 170 168 166 164 161 158 156 155 151 143 137 131 125 120 118 115 111 104 97 93 92 89 76 60 49 40 31
Height
1468 1465 1464 1466 1465 1462 1459 1454 1443 1431 1425 1423 1423 1418 1416 1416 1415 1415 1412 1407 1405 1404 1405 1405 1407 1408 1409 1408 1410 1411 1412 1413 1416 1418 1420 1418 1413 1424 1427 1437 1417 1437 1443 1447
1463 1463 1468 1468 1463 1457 1451 1443 1435 1424 1423 1430 1425 1416 1414 1419 1419 1421 1420 1416 1412 1409 1404 1404 1404 1405 1405 1405 1406 1408 1408 1409 1410 1413 1418 1413 1421 1420 1425 1431 1436 1435 1442 1449
1468 1468 1467 1463 1458 1453 1450 1443 1437 1438 1436 1429 1421 1412 1416 1418 1418 1424 1423 1420 1414 1411 1407 1404 1402 1402 1403 1402 1404 1405 1404 1406 1405 1408 1410 1417 1418 1421 1424 1426 1434 1436 1443 1450
1470 1469 1466 1463 1461 1454 1447 1440 1438 1433 1439 1428 1420 1407 1421 1423 1428 1428 1424 1418 1413 1408 1404 1403 1401 1399 1401 1400 1402 1401 1400 1402 1403 1406 1411 1414 1415 1416 1422 1428 1433 1437 1441 1449
1473 1470 1468 1470 1458 1454 1449 1439 1430 1425 1432 1433 1414 1422 1438 1430 1432 1426 1421 1416 1411 1402 1399 1399 1398 1396 1398 1398 1399 1398 1398 1400 1401 1402 1405 1412 1414 1418 1422 1425 1429 1433 1437 1442
1476 1473 1470 1465 1460 1452 1448 1434 1416 1413 1413 1411 1411 1414 1437 1446 1451 1439 1430 1418 1405 1394 1394 1395 1395 1394 1394 1395 1395 1396 1397 1395 1396 1400 1405 1408 1412 1415 1419 1424 1427 1431 1435 1436
1473 1466 1468 1469 1461 1451 1448 1435 1408 1401 1401 1415 1417 1414 1451 1458 1457 1454 1443 1427 1411 1401 1397 1396 1395 1394 1393 1395 1394 1393 1395 1392 1394 1398 1402 1410 1411 1413 1416 1423 1426 1430 1430 1432
1483 1468 1472 1474 1473 1473 1454 1454 1453 1434 1425 1424 1418 1439 1444 1459 1460 1456 1449 1436 1415 1407 1400 1396 1395 1394 1393 1391 1391 1393 1394 1392 1394 1398 1403 1409 1412 1414 1419 1423 1424 1426 1426 1429
1495 1475 1472 1476 1475 1474 1463 1462 1462 1457 1445 1437 1436 1441 1447 1454 1453 1449 1440 1431 1424 1417 1410 1404 1401 1397 1393 1392 1392 1397 1394 1391 1396 1401 1406 1410 1412 1410 1417 1420 1426 1430 1425 1433
1502 1493 1470 1472 1478 1478 1473 1471 1462 1451 1447 1426 1428 1453 1478 1471 1466 1459 1449 1445 1436 1426 1417 1412 1406 1402 1398 1395 1399 1396 1391 1393 1399 1405 1410 1414 1415 1417 1417 1427 1429 1433 1435 1435
1503 1502 1475 1470 1488 1490 1479 1477 1470 1470 1464 1455 1439 1464 1492 1489 1484 1475 1466 1457 1447 1435 1428 1423 1416 1410 1405 1404 1402 1394 1394 1399 1410 1412 1415 1416 1416 1419 1427 1431 1437 1439 1442 1440
1500 1500 1482 1481 1490 1488 1492 1491 1480 1464 1473 1472 1467 1470 1494 1494 1489 1481 1473 1465 1454 1443 1438 1434 1425 1418 1414 1411 1404 1397 1402 1411 1420 1424 1425 1420 1421 1420 1427 1435 1438 1447 1447 1449
1504 1489 1476 1466 1489 1484 1488 1493 1488 1485 1481 1486 1469 1467 1489 1494 1488 1483 1478 1470 1460 1451 1444 1441 1433 1429 1427 1417 1408 1407 1415 1421 1429 1430 1430 1430 1429 1429 1437 1441 1452 1459 1458 1458
1508 1500 1499 1500 1506 1509 1504 1500 1492 1486 1476 1486 1492 1494 1496 1494 1489 1486 1482 1476 1466 1461 1458 1443 1440 1438 1434 1422 1419 1424 1426 1437 1439 1438 1439 1439 1440 1447 1451 1457 1463 1465 1466 1466
1508 1499 1508 1505 1506 1506 1506 1504 1504 1502 1504 1491 1495 1498 1507 1499 1498 1490 1489 1485 1469 1463 1462 1461 1461 1449 1438 1427 1435 1442 1445 1446 1449 1448 1449 1448 1452 1457 1463 1469 1469 1477 1476 1475
1510 1499 1508 1500 1502 1507 1495 1503 1498 1505 1508 1502 1497 1492 1508 1510 1503 1489 1485 1489 1481 1479 1471 1469 1462 1454 1444 1451 1455 1455 1456 1458 1458 1457 1457 1463 1468 1472 1475 1472 1478 1484 1481 1485
1510 1507 1501 1475 1488 1496 1495 1506 1510 1504 1513 1516 1500 1504 1513 1509 1505 1502 1495 1493 1491 1486 1482 1475 1469 1464 1464 1467 1466 1464 1464 1467 1467 1468 1472 1474 1476 1476 1480 1487 1489 1486 1487 1494
1513 1509 1505 1483 1483 1481 1495 1507 1510 1510 1510 1515 1512 1509 1509 1513 1510 1509 1504 1501 1499 1495 1488 1481 1477 1476 1475 1474 1474 1475 1476 1476 1476 1478 1480 1483 1485 1486 1492 1492 1490 1494 1499 1499
1513 1508 1495 1480 1489 1493 1489 1502 1504 1503 1507 1510 1512 1513 1510 1512 1515 1514 1510 1506 1501 1497 1494 1492 1488 1486 1486 1485 1486 1486 1486 1486 1486 1486 1489 1492 1494 1496 1499 1496 1499 1502 1505 1504
1510 1510 1500 1490 1479 1477 1485 1499 1501 1503 1495 1509 1510 1511 1512 1510 1506 1516 1514 1510 1507 1505 1503 1500 1498 1498 1496 1496 1497 1495 1493 1493 1494 1497 1497 1500 1503 1504 1501 1506 1510 1509 1508 1508
1501 1500 1487 1487 1478 1482 1493 1497 1500 1488 1495 1504 1507 1508 1509 1510 1514 1514 1515 1514 1512 1511 1509 1509 1508 1506 1505 1506 1505 1502 1502 1502 1505 1507 1509 1510 1511 1512 1514 1515 1513 1514 1512 1511
1484 1483 1483 1495 1479 1471 1493 1497 1492 1497 1499 1502 1506 1507 1508 1510 1513 1514 1514 1514 1514 1514 1514 1513 1512 1511 1512 1513 1513 1510 1510 1513 1515 1515 1516 1516 1516 1517 1518 1518 1518 1516 1517 1516
1483 1486 1479 1481 1475 1487 1488 1489 1490 1493 1494 1501 1504 1506 1508 1510 1512 1514 1515 1516 1516 1516 1516 1517 1517 1517 1517 1518 1518 1517 1517 1519 1521 1522 1522 1520 1520 1521 1521 1521 1521 1522 1522 1519
1487 1488 1486 1486 1485 1484 1484 1486 1489 1492 1496 1500 1503 1505 1508 1510 1512 1514 1515 1517 1518 1518 1519 1520 1520 1521 1521 1522 1523 1523 1523 1525 1526 1525 1524 1524 1524 1525 1524 1525 1527 1525 1525 1524
1478 1484 1481 1480 1482 1483 1482 1482 1485 1489 1494 1498 1502 1505 1507 1509 1510 1512 1513 1515 1517 1518 1519 1521 1522 1523 1524 1525 1525 1525 1525 1527 1526 1525 1525 1526 1527 1527 1528 1530 1531 1528 1524 1521
1467 1462 1465 1454 1453 1458 1463 1472 1480 1485 1489 1495 1498 1501 1504 1507 1508 1510 1512 1514 1516 1518 1520 1522 1523 1525 1525 1526 1527 1528 1529 1529 1530 1529 1529 1530 1531 1533 1533 1532 1528 1526 1525 1524